Year,Month,Day,Hour,Minute,Value (Times are PST for temperature in C)
2010,10,02,10,15,14.60
2010,10,02,10,16,14.60
2010,10,02,10,17,14.60
2010,10,02,10,18,14.60
2010,10,02,10,19,14.70
2010,10,02,10,20,14.70
2010,10,02,10,21,14.70
2010,10,02,10,22,14.70
2010,10,02,10,23,14.80
2010,10,02,10,24,14.80
2010,10,02,10,25,14.80
2010,10,02,10,26,14.90
2010,10,02,10,27,14.90
2010,10,02,10,28,14.90
2010,10,02,10,29,14.90
2010,10,02,10,30,14.90
2010,10,02,10,31,14.90
2010,10,02,10,32,14.90
2010,10,02,10,33,15.00
2010,10,02,10,34,15.00
2010,10,02,10,35,15.00
2010,10,02,10,36,15.00
2010,10,02,10,37,15.00
2010,10,02,10,38,15.00
2010,10,02,10,39,15.00
2010,10,02,10,40,15.00
2010,10,02,10,41,15.00
2010,10,02,10,42,15.00
2010,10,02,10,43,15.00
2010,10,02,10,44,15.00
2010,10,02,10,45,15.00
2010,10,02,10,46,15.10
2010,10,02,10,47,15.10
2010,10,02,10,48,15.20
2010,10,02,10,49,15.20
2010,10,02,10,50,15.20
2010,10,02,10,51,15.20
2010,10,02,10,52,15.20
2010,10,02,10,53,15.20
2010,10,02,10,54,15.20
2010,10,02,10,55,15.20
2010,10,02,10,56,15.30
2010,10,02,10,57,15.30
2010,10,02,10,58,15.30
2010,10,02,10,59,15.30
2010,10,02,11,00,15.30
2010,10,02,11,01,15.30
2010,10,02,11,02,15.30
2010,10,02,11,03,15.40
2010,10,02,11,04,15.40
2010,10,02,11,05,15.40
2010,10,02,11,06,15.40
2010,10,02,11,07,15.50
2010,10,02,11,08,15.50
2010,10,02,11,09,15.60
2010,10,02,11,10,15.60
2010,10,02,11,11,15.60
2010,10,02,11,12,15.60
2010,10,02,11,13,15.70
2010,10,02,11,14,15.70
2010,10,02,11,15,15.70
2010,10,02,11,16,15.70
2010,10,02,11,17,15.70
2010,10,02,11,18,15.70
2010,10,02,11,19,15.80
2010,10,02,11,20,15.80
2010,10,02,11,21,15.80
2010,10,02,11,22,15.80
2010,10,02,11,23,15.80
2010,10,02,11,24,15.80
2010,10,02,11,25,15.80
2010,10,02,11,26,15.80
2010,10,02,11,27,15.80
2010,10,02,11,28,15.80
2010,10,02,11,29,15.80
2010,10,02,11,30,15.90
2010,10,02,11,31,15.90
2010,10,02,11,32,15.90
2010,10,02,11,33,15.90
2010,10,02,11,34,15.90
2010,10,02,11,35,16.00
2010,10,02,11,36,16.00
2010,10,02,11,37,16.00
2010,10,02,11,38,16.10
2010,10,02,11,39,16.10
2010,10,02,11,40,16.10
2010,10,02,11,41,16.20
2010,10,02,11,42,16.20
2010,10,02,11,43,16.20
2010,10,02,11,44,16.20
2010,10,02,11,45,16.20
2010,10,02,11,46,16.20
2010,10,02,11,47,16.30
2010,10,02,11,48,16.30
2010,10,02,11,49,16.40
2010,10,02,11,50,16.40
2010,10,02,11,51,16.50
2010,10,02,11,52,16.50
2010,10,02,11,53,16.60
2010,10,02,11,54,16.70
2010,10,02,11,55,16.70
2010,10,02,11,56,16.80
2010,10,02,11,57,16.80
2010,10,02,11,58,16.90
2010,10,02,11,59,16.90
2010,10,02,12,00,16.80
2010,10,02,12,01,16.70
2010,10,02,12,02,16.60
2010,10,02,12,03,16.50
2010,10,02,12,04,16.50
2010,10,02,12,05,16.50
2010,10,02,12,06,16.50
2010,10,02,12,07,16.50
2010,10,02,12,08,16.50
2010,10,02,12,09,16.50
2010,10,02,12,10,16.40
2010,10,02,12,11,16.30
2010,10,02,12,12,16.20
2010,10,02,12,13,16.20
2010,10,02,12,14,16.10
2010,10,02,12,15,16.10
2010,10,02,12,16,16.20
2010,10,02,12,17,16.20
2010,10,02,12,18,16.30
2010,10,02,12,19,16.30
2010,10,02,12,20,16.30
2010,10,02,12,21,16.30
2010,10,02,12,22,16.30
2010,10,02,12,23,16.20
2010,10,02,12,24,16.20
2010,10,02,12,25,16.20
2010,10,02,12,26,16.20
2010,10,02,12,27,16.20
2010,10,02,12,28,16.30
2010,10,02,12,29,16.30
2010,10,02,12,30,16.30
2010,10,02,12,31,16.30
2010,10,02,12,32,16.20
2010,10,02,12,33,16.20
2010,10,02,12,34,16.20
2010,10,02,12,35,16.20
2010,10,02,12,36,16.20
2010,10,02,12,37,16.10
2010,10,02,12,38,16.10
2010,10,02,12,39,16.10
2010,10,02,12,40,16.10
2010,10,02,12,41,16.10
2010,10,02,12,42,16.20
2010,10,02,12,43,16.20
2010,10,02,12,44,16.20
2010,10,02,12,45,16.20
2010,10,02,12,46,16.20
2010,10,02,12,47,16.30
2010,10,02,12,48,16.30
2010,10,02,12,49,16.30
2010,10,02,12,50,16.30
2010,10,02,12,51,16.40
2010,10,02,12,52,16.40
2010,10,02,12,53,16.40
2010,10,02,12,54,16.40
2010,10,02,12,55,16.40
2010,10,02,12,56,16.40
2010,10,02,12,57,16.40
2010,10,02,12,58,16.40
2010,10,02,12,59,16.30
2010,10,02,13,00,16.30
2010,10,02,13,01,16.30
2010,10,02,13,02,16.30
2010,10,02,13,03,16.30
2010,10,02,13,04,16.30
2010,10,02,13,05,16.30
2010,10,02,13,06,16.40
2010,10,02,13,07,16.40
2010,10,02,13,08,16.40
2010,10,02,13,09,16.40
2010,10,02,13,10,16.40
2010,10,02,13,11,16.40
2010,10,02,13,12,16.40
2010,10,02,13,13,16.30
2010,10,02,13,14,16.30
2010,10,02,13,15,16.30
2010,10,02,13,16,16.30
2010,10,02,13,17,16.40
2010,10,02,13,18,16.50
2010,10,02,13,19,16.60
2010,10,02,13,20,16.60
2010,10,02,13,21,16.60
2010,10,02,13,22,16.60
2010,10,02,13,23,16.60
2010,10,02,13,24,16.60
2010,10,02,13,25,16.60
2010,10,02,13,26,16.70
2010,10,02,13,27,16.70
2010,10,02,13,28,16.80
2010,10,02,13,29,16.80
2010,10,02,13,30,16.80
2010,10,02,13,31,16.80
2010,10,02,13,32,16.80
2010,10,02,13,33,16.70
2010,10,02,13,34,16.70
2010,10,02,13,35,16.70
2010,10,02,13,36,16.70
2010,10,02,13,37,16.70
2010,10,02,13,38,16.80
2010,10,02,13,39,16.90
2010,10,02,13,40,17.00
2010,10,02,13,41,17.00
2010,10,02,13,42,16.90
2010,10,02,13,43,16.90
2010,10,02,13,44,16.80
2010,10,02,13,45,16.70
2010,10,02,13,46,16.70
2010,10,02,13,47,16.70
2010,10,02,13,48,16.70
2010,10,02,13,49,16.70
2010,10,02,13,50,16.80
2010,10,02,13,51,16.80
2010,10,02,13,52,16.80
2010,10,02,13,53,16.80
2010,10,02,13,54,16.70
2010,10,02,13,55,16.60
2010,10,02,13,56,16.40
2010,10,02,13,57,16.30
2010,10,02,13,58,16.20
2010,10,02,13,59,16.20
2010,10,02,14,00,16.20
2010,10,02,14,01,16.30
2010,10,02,14,02,16.30
2010,10,02,14,03,16.50
2010,10,02,14,04,16.50
2010,10,02,14,05,16.50
2010,10,02,14,06,16.50
2010,10,02,14,07,16.40
2010,10,02,14,08,16.40
2010,10,02,14,09,16.30
2010,10,02,14,10,16.30
2010,10,02,14,11,16.30
2010,10,02,14,12,16.30
2010,10,02,14,13,16.30
2010,10,02,14,14,16.30
2010,10,02,14,15,16.30
2010,10,02,14,16,16.20
2010,10,02,14,17,16.20
2010,10,02,14,18,16.10
2010,10,02,14,19,16.10
2010,10,02,14,20,16.00
2010,10,02,14,21,16.00
2010,10,02,14,22,16.10
2010,10,02,14,23,16.20
2010,10,02,14,24,16.30
2010,10,02,14,25,16.30
2010,10,02,14,26,16.40
2010,10,02,14,27,16.40
2010,10,02,14,28,16.40
2010,10,02,14,29,16.30
2010,10,02,14,30,16.30
2010,10,02,14,31,16.30
2010,10,02,14,32,16.30
2010,10,02,14,33,16.30
2010,10,02,14,34,16.30
2010,10,02,14,35,16.40
2010,10,02,14,36,16.50
2010,10,02,14,37,16.60
2010,10,02,14,38,16.60
2010,10,02,14,39,16.50
2010,10,02,14,40,16.40
2010,10,02,14,41,16.40
2010,10,02,14,42,16.50
2010,10,02,14,43,16.50
2010,10,02,14,44,16.40
2010,10,02,14,45,16.50
2010,10,02,14,46,16.50
2010,10,02,14,47,16.60
2010,10,02,14,48,16.70
2010,10,02,14,49,16.80
2010,10,02,14,50,16.80
2010,10,02,14,51,16.80
2010,10,02,14,52,16.80
2010,10,02,14,53,16.80
2010,10,02,14,54,16.90
2010,10,02,14,55,16.90
2010,10,02,14,56,16.90
2010,10,02,14,57,17.00
2010,10,02,14,58,17.10
2010,10,02,14,59,17.20
2010,10,02,15,00,17.20
2010,10,02,15,01,17.30
2010,10,02,15,02,17.20
2010,10,02,15,03,17.20
2010,10,02,15,04,17.10
2010,10,02,15,05,17.00
2010,10,02,15,06,16.90
2010,10,02,15,07,16.90
2010,10,02,15,08,16.90
2010,10,02,15,09,17.00
2010,10,02,15,10,17.00
2010,10,02,15,11,17.00
2010,10,02,15,12,17.10
2010,10,02,15,13,17.10
2010,10,02,15,14,17.10
2010,10,02,15,15,17.00
2010,10,02,15,16,17.00
2010,10,02,15,17,17.10
2010,10,02,15,18,17.00
2010,10,02,15,19,17.00
2010,10,02,15,20,17.00
2010,10,02,15,21,17.10
2010,10,02,15,22,17.10
2010,10,02,15,23,17.20
2010,10,02,15,24,17.20
2010,10,02,15,25,17.10
2010,10,02,15,26,17.10
2010,10,02,15,27,17.10
2010,10,02,15,28,17.10
2010,10,02,15,29,17.10
2010,10,02,15,30,17.10
2010,10,02,15,31,17.20
2010,10,02,15,32,17.20
2010,10,02,15,33,17.20
2010,10,02,15,34,17.20
2010,10,02,15,35,17.10
2010,10,02,15,36,17.10
2010,10,02,15,37,17.00
2010,10,02,15,38,17.10
2010,10,02,15,39,17.10
2010,10,02,15,40,17.10
2010,10,02,15,41,17.10
2010,10,02,15,42,17.20
2010,10,02,15,43,17.20
2010,10,02,15,44,17.20
2010,10,02,15,45,17.20
2010,10,02,15,46,17.20
2010,10,02,15,47,17.20
2010,10,02,15,48,17.20
2010,10,02,15,49,17.20
2010,10,02,15,50,17.20
2010,10,02,15,51,17.10
2010,10,02,15,52,17.10
2010,10,02,15,53,17.00
2010,10,02,15,54,17.00
2010,10,02,15,55,16.90
2010,10,02,15,56,16.90
2010,10,02,15,57,16.80
2010,10,02,15,58,16.80
2010,10,02,15,59,16.70
2010,10,02,16,00,16.70
2010,10,02,16,01,16.70
2010,10,02,16,02,16.80
2010,10,02,16,03,16.80
2010,10,02,16,04,16.80
2010,10,02,16,05,16.90
2010,10,02,16,06,16.90
2010,10,02,16,07,16.80
2010,10,02,16,08,16.80
2010,10,02,16,09,16.80
2010,10,02,16,10,16.80
2010,10,02,16,11,16.80
2010,10,02,16,12,16.80
2010,10,02,16,13,16.80
2010,10,02,16,14,16.80
2010,10,02,16,15,16.90
2010,10,02,16,16,16.90
2010,10,02,16,17,16.90
2010,10,02,16,18,16.90
2010,10,02,16,19,16.90
2010,10,02,16,20,17.00
2010,10,02,16,21,17.00
2010,10,02,16,22,17.00
2010,10,02,16,23,17.00
2010,10,02,16,24,16.90
2010,10,02,16,25,16.90
2010,10,02,16,26,16.90
2010,10,02,16,27,16.90
2010,10,02,16,28,16.80
2010,10,02,16,29,16.80
2010,10,02,16,30,16.80
2010,10,02,16,31,16.80
2010,10,02,16,32,16.80
2010,10,02,16,33,16.80
2010,10,02,16,34,16.80
2010,10,02,16,35,16.80
2010,10,02,16,36,16.80
2010,10,02,16,37,16.80
2010,10,02,16,38,16.80
2010,10,02,16,39,16.90
2010,10,02,16,40,16.90
2010,10,02,16,41,16.90
2010,10,02,16,42,16.90
2010,10,02,16,43,16.80
2010,10,02,16,44,16.80
2010,10,02,16,45,16.80
2010,10,02,16,46,16.80
2010,10,02,16,47,16.90
2010,10,02,16,48,16.80
2010,10,02,16,49,16.80
2010,10,02,16,50,16.80
2010,10,02,16,51,16.90
2010,10,02,16,52,16.90
2010,10,02,16,53,16.90
2010,10,02,16,54,16.80
2010,10,02,16,55,16.70
2010,10,02,16,56,16.70
2010,10,02,16,57,16.70
2010,10,02,16,58,16.70
2010,10,02,16,59,16.60
2010,10,02,17,00,16.60
2010,10,02,17,01,16.60
2010,10,02,17,02,16.50
2010,10,02,17,03,16.50
2010,10,02,17,04,16.40
2010,10,02,17,05,16.40
2010,10,02,17,06,16.40
2010,10,02,17,07,16.40
2010,10,02,17,08,16.50
2010,10,02,17,09,16.50
2010,10,02,17,10,16.50
2010,10,02,17,11,16.50
2010,10,02,17,12,16.50
2010,10,02,17,13,16.40
2010,10,02,17,14,16.40
2010,10,02,17,15,16.30
2010,10,02,17,16,16.30
2010,10,02,17,17,16.30
2010,10,02,17,18,16.30
2010,10,02,17,19,16.30
2010,10,02,17,20,16.30
2010,10,02,17,21,16.30
2010,10,02,17,22,16.30
2010,10,02,17,23,16.30
2010,10,02,17,24,16.20
2010,10,02,17,25,16.20
2010,10,02,17,26,16.20
2010,10,02,17,27,16.20
2010,10,02,17,28,16.20
2010,10,02,17,29,16.20
2010,10,02,17,30,16.20
2010,10,02,17,31,16.20
2010,10,02,17,32,16.20
2010,10,02,17,33,16.10
2010,10,02,17,34,16.10
2010,10,02,17,35,16.10
2010,10,02,17,36,16.10
2010,10,02,17,37,16.10
2010,10,02,17,38,16.10
2010,10,02,17,39,16.10
2010,10,02,17,40,16.10
2010,10,02,17,41,16.10
2010,10,02,17,42,16.10
2010,10,02,17,43,16.10
2010,10,02,17,44,16.10
2010,10,02,17,45,16.10
2010,10,02,17,46,16.10
2010,10,02,17,47,16.10
2010,10,02,17,48,16.10
2010,10,02,17,49,16.10
2010,10,02,17,50,16.10
2010,10,02,17,51,16.10
2010,10,02,17,52,16.10
2010,10,02,17,53,16.00
2010,10,02,17,54,16.00
2010,10,02,17,55,16.00
2010,10,02,17,56,16.00
2010,10,02,17,57,15.90
2010,10,02,17,58,15.90
2010,10,02,17,59,15.90
2010,10,02,18,00,15.80
2010,10,02,18,01,15.80
2010,10,02,18,02,15.80
2010,10,02,18,03,15.80
2010,10,02,18,04,15.80
2010,10,02,18,05,15.80
2010,10,02,18,06,15.80
2010,10,02,18,07,15.80
2010,10,02,18,08,15.80
2010,10,02,18,09,15.70
2010,10,02,18,10,15.70
2010,10,02,18,11,15.70
2010,10,02,18,12,15.70
2010,10,02,18,13,15.70
2010,10,02,18,14,15.70
2010,10,02,18,15,15.70
2010,10,02,18,16,15.60
2010,10,02,18,17,15.60
2010,10,02,18,18,15.60
2010,10,02,18,19,15.60
2010,10,02,18,20,15.60
2010,10,02,18,21,15.50
2010,10,02,18,22,15.50
2010,10,02,18,23,15.50
2010,10,02,18,24,15.40
2010,10,02,18,25,15.40
2010,10,02,18,26,15.30
2010,10,02,18,27,15.30
2010,10,02,18,28,15.30
2010,10,02,18,29,15.30
2010,10,02,18,30,15.20
2010,10,02,18,31,15.20
2010,10,02,18,32,15.10
2010,10,02,18,33,15.00
2010,10,02,18,34,15.00
2010,10,02,18,35,15.00
2010,10,02,18,36,15.00
2010,10,02,18,37,15.00
2010,10,02,18,38,15.00
2010,10,02,18,39,15.00
2010,10,02,18,40,14.90
2010,10,02,18,41,14.90
2010,10,02,18,42,14.80
2010,10,02,18,43,14.80
2010,10,02,18,44,14.70
2010,10,02,18,45,14.70
2010,10,02,18,46,14.70
2010,10,02,18,47,14.70
2010,10,02,18,48,14.70
2010,10,02,18,49,14.60
2010,10,02,18,50,14.60
2010,10,02,18,51,14.60
2010,10,02,18,52,14.60
2010,10,02,18,53,14.60
2010,10,02,18,54,14.50
2010,10,02,18,55,14.50
2010,10,02,18,56,14.50
2010,10,02,18,57,14.50
2010,10,02,18,58,14.50
2010,10,02,18,59,14.40
2010,10,02,19,00,14.40
2010,10,02,19,01,14.40
2010,10,02,19,02,14.40
2010,10,02,19,03,14.40
2010,10,02,19,04,14.40
2010,10,02,19,05,14.40
2010,10,02,19,06,14.40
2010,10,02,19,07,14.40
2010,10,02,19,08,14.40
2010,10,02,19,09,14.30
2010,10,02,19,10,14.30
2010,10,02,19,11,14.30
2010,10,02,19,12,14.30
2010,10,02,19,13,14.30
2010,10,02,19,14,14.30
2010,10,02,19,15,14.20
2010,10,02,19,16,14.20
2010,10,02,19,17,14.20
2010,10,02,19,18,14.20
2010,10,02,19,19,14.20
2010,10,02,19,20,14.10
2010,10,02,19,21,14.10
2010,10,02,19,22,14.10
2010,10,02,19,23,14.10
2010,10,02,19,24,14.10
2010,10,02,19,25,14.10
2010,10,02,19,26,14.00
2010,10,02,19,27,14.00
2010,10,02,19,28,14.00
2010,10,02,19,29,14.00
2010,10,02,19,30,13.90
2010,10,02,19,31,13.90
2010,10,02,19,32,13.90
2010,10,02,19,33,13.90
2010,10,02,19,34,13.90
2010,10,02,19,35,13.90
2010,10,02,19,36,13.90
2010,10,02,19,37,13.90
2010,10,02,19,38,13.90
2010,10,02,19,39,13.80
2010,10,02,19,40,13.80
2010,10,02,19,41,13.80
2010,10,02,19,42,13.80
2010,10,02,19,43,13.80
2010,10,02,19,44,13.80
2010,10,02,19,45,13.80
2010,10,02,19,46,13.80
2010,10,02,19,47,13.80
2010,10,02,19,48,13.80
2010,10,02,19,49,13.70
2010,10,02,19,50,13.70
2010,10,02,19,51,13.70
2010,10,02,19,52,13.70
2010,10,02,19,53,13.70
2010,10,02,19,54,13.70
2010,10,02,19,55,13.70
2010,10,02,19,56,13.70
2010,10,02,19,57,13.70
2010,10,02,19,58,13.70
2010,10,02,19,59,13.70
2010,10,02,20,00,13.70
2010,10,02,20,01,13.70
2010,10,02,20,02,13.70
2010,10,02,20,03,13.70
2010,10,02,20,04,13.70
2010,10,02,20,05,13.70
2010,10,02,20,06,13.70
2010,10,02,20,07,13.70
2010,10,02,20,08,13.70
2010,10,02,20,09,13.70
2010,10,02,20,10,13.70
2010,10,02,20,11,13.70
2010,10,02,20,12,13.70
2010,10,02,20,13,13.60
2010,10,02,20,14,13.60
2010,10,02,20,15,13.60
2010,10,02,20,16,13.60
2010,10,02,20,17,13.60
2010,10,02,20,18,13.60
2010,10,02,20,19,13.70
2010,10,02,20,20,13.70
2010,10,02,20,21,13.70
2010,10,02,20,22,13.70
2010,10,02,20,23,13.70
2010,10,02,20,24,13.70
2010,10,02,20,25,13.70
2010,10,02,20,26,13.70
2010,10,02,20,27,13.70
2010,10,02,20,28,13.70
2010,10,02,20,29,13.70
2010,10,02,20,30,13.60
2010,10,02,20,31,13.70
2010,10,02,20,32,13.60
2010,10,02,20,33,13.70
2010,10,02,20,34,13.70
2010,10,02,20,35,13.70
2010,10,02,20,36,13.60
2010,10,02,20,37,13.60
2010,10,02,20,38,13.50
2010,10,02,20,39,13.50
2010,10,02,20,40,13.50
2010,10,02,20,41,13.50
2010,10,02,20,42,13.50
2010,10,02,20,43,13.50
2010,10,02,20,44,13.40
2010,10,02,20,45,13.40
2010,10,02,20,46,13.40
2010,10,02,20,47,13.40
2010,10,02,20,48,13.40
2010,10,02,20,49,13.40
2010,10,02,20,50,13.40
2010,10,02,20,51,13.30
2010,10,02,20,52,13.30
2010,10,02,20,53,13.30
2010,10,02,20,54,13.30
2010,10,02,20,55,13.20
2010,10,02,20,56,13.30
2010,10,02,20,57,13.30
2010,10,02,20,58,13.30
2010,10,02,20,59,13.20
2010,10,02,21,00,13.20
2010,10,02,21,01,13.20
2010,10,02,21,02,13.20
2010,10,02,21,03,13.20
2010,10,02,21,04,13.20
2010,10,02,21,05,13.20
2010,10,02,21,06,13.20
2010,10,02,21,07,13.20
2010,10,02,21,08,13.20
2010,10,02,21,09,13.10
2010,10,02,21,10,13.10
2010,10,02,21,11,13.10
2010,10,02,21,12,13.10
2010,10,02,21,13,13.10
2010,10,02,21,14,13.10
2010,10,02,21,15,13.10
2010,10,02,21,16,13.10
2010,10,02,21,17,13.10
2010,10,02,21,18,13.10
2010,10,02,21,19,13.10
2010,10,02,21,20,13.10
2010,10,02,21,21,13.10
2010,10,02,21,22,13.10
2010,10,02,21,23,13.00
2010,10,02,21,24,13.00
2010,10,02,21,25,13.00
2010,10,02,21,26,13.00
2010,10,02,21,27,13.00
2010,10,02,21,28,13.00
2010,10,02,21,29,13.10
2010,10,02,21,30,13.10
2010,10,02,21,31,13.10
2010,10,02,21,32,13.10
2010,10,02,21,33,13.10
2010,10,02,21,34,13.10
2010,10,02,21,35,13.10
2010,10,02,21,36,13.00
2010,10,02,21,37,13.00
2010,10,02,21,38,13.00
2010,10,02,21,39,12.90
2010,10,02,21,40,12.90
2010,10,02,21,41,12.90
2010,10,02,21,42,12.90
2010,10,02,21,43,12.80
2010,10,02,21,44,12.80
2010,10,02,21,45,12.80
2010,10,02,21,46,12.70
2010,10,02,21,47,12.70
2010,10,02,21,48,12.70
2010,10,02,21,49,12.70
2010,10,02,21,50,12.60
2010,10,02,21,51,12.60
2010,10,02,21,52,12.60
2010,10,02,21,53,12.60
2010,10,02,21,54,12.60
2010,10,02,21,55,12.60
2010,10,02,21,56,12.60
2010,10,02,21,57,12.60
2010,10,02,21,58,12.60
2010,10,02,21,59,12.60
2010,10,02,22,00,12.60
